Location: Les Jeannots
(43.2262°N, 5.5774°E)
Time: 02:57:41
(UTC+00:00)

Cosmos 2237 Rocket - Pass Details

Date: 05 July 2020
Orbit: 834 x 850 km, 71.0° (Epoch: 04 August)

Event Time Altitude Azimuth Distance (km) Brightness Sun altitude
Exits shadow 22:14:56 35° 196° (SSW) 1,338 2.8 -21.1°
Maximum altitude 22:17:27 82° 113° (ESE) 863 2.1 -21.3°
Drops below altitude 10° 22:23:10 10° 26° (NNE) 2,485 5.2 -21.6°
Sets 22:25:37 0° 26° (NNE) 3,425 6.0 -21.8°
